datetime,flow volume
2005-01-01,591.07438
2005-01-02,604.95868
2005-01-03,614.87603
2005-01-04,634.71074
2005-01-05,638.67769
2005-01-06,610.90909
2005-01-07,604.95868
2005-01-08,577.19008
2005-01-09,583.1405
2005-01-10,604.95868
2005-01-11,636.69421
2005-01-12,672.39669
2005-01-13,559.33884
2005-01-14,474.04959
2005-01-15,581.15702
2005-01-16,608.92562
2005-01-17,581.15702
2005-01-18,565.28926
2005-01-19,589.09091
2005-01-20,612.89256
2005-01-21,626.77686
2005-01-22,622.80992
2005-01-23,638.67769
2005-01-24,632.72727
2005-01-25,650.57851
2005-01-26,658.5124
2005-01-27,676.36364
2005-01-28,702.14876
2005-01-29,684.29752
2005-01-30,720.0
2005-01-31,706.1157
2005-02-01,696.19835
2005-02-02,672.39669
2005-02-03,642.64463
2005-02-04,614.87603
2005-02-05,608.92562
2005-02-06,628.76033
2005-02-07,670.41322
2005-02-08,692.2314
2005-02-09,686.28099
2005-02-10,660.49587
2005-02-11,628.76033
2005-02-12,716.03306
2005-02-13,720.0
2005-02-14,783.47107
2005-02-15,795.3719
2005-02-16,858.84298
2005-02-17,914.38017
2005-02-18,890.57851
2005-02-19,852.89256
2005-02-20,848.92562
2005-02-21,840.99174
2005-02-22,809.2562
2005-02-23,803.30579
2005-02-24,819.17355
2005-02-25,811.23967
2005-02-26,793.38843
2005-02-27,771.57025
2005-02-28,735.86777
2005-03-01,720.0
2005-03-02,720.0
2005-03-03,721.98347
2005-03-04,710.08264
2005-03-05,716.03306
2005-03-06,696.19835
2005-03-07,704.13223
2005-03-08,712.06612
2005-03-09,706.1157
2005-03-10,714.04959
2005-03-11,725.95041
2005-03-12,745.78512
2005-03-13,797.35537
2005-03-14,892.56198
2005-03-15,989.75207
2005-03-16,1045.28926
2005-03-17,993.71901
2005-03-18,995.70248
2005-03-19,954.04959
2005-03-20,912.39669
2005-03-21,900.49587
2005-03-22,880.66116
2005-03-23,864.79339
2005-03-24,846.94215
2005-03-25,833.05785
2005-03-26,866.77686
2005-03-27,848.92562
2005-03-28,842.97521
2005-03-29,817.19008
2005-03-30,801.32231
2005-03-31,854.87603
2005-04-01,886.61157
2005-04-02,858.84298
2005-04-03,817.19008
2005-04-04,785.45455
2005-04-05,852.89256
2005-04-06,969.91736
2005-04-07,825.12397
2005-04-08,795.3719
2005-04-09,1059.17355
2005-04-10,1336.8595
2005-04-11,1418.18182
2005-04-12,1209.91736
2005-04-13,1082.97521
2005-04-14,1077.02479
2005-04-15,1287.27273
2005-04-16,1642.31405
2005-04-17,1977.52066
2005-04-18,2221.4876
2005-04-19,2459.50413
2005-04-20,2737.19008
2005-04-21,3074.38017
2005-04-22,2876.03306
2005-04-23,2697.52066
2005-04-24,2479.33884
2005-04-25,2697.52066
2005-04-26,3133.8843
2005-04-27,2598.34711
2005-04-28,2082.64463
2005-04-29,1884.29752
2005-04-30,1674.04959
2005-05-01,1543.1405
2005-05-02,1432.06612
2005-05-03,1404.29752
2005-05-04,1461.81818
2005-05-05,1584.79339
2005-05-06,1594.71074
2005-05-07,1656.19835
2005-05-08,1910.08264
2005-05-09,2062.80992
2005-05-10,2062.80992
2005-05-11,2142.14876
2005-05-12,2400.0
2005-05-13,2677.68595
2005-05-14,2618.18182
2005-05-15,2380.16529
2005-05-16,2638.01653
2005-05-17,2975.20661
2005-05-18,3471.07438
2005-05-19,4006.61157
2005-05-20,4423.1405
2005-05-21,4601.65289
2005-05-22,4859.50413
2005-05-23,5395.04132
2005-05-24,5990.08264
2005-05-25,6684.29752
2005-05-26,7299.17355
2005-05-27,7537.19008
2005-05-28,7219.83471
2005-05-29,6882.64463
2005-05-30,6485.95041
2005-05-31,6148.76033
2005-06-01,5593.38843
2005-06-02,5256.19835
2005-06-03,5018.18182
2005-06-04,4819.83471
2005-06-05,4760.33058
2005-06-06,4780.16529
2005-06-07,4244.6281
2005-06-08,3887.60331
2005-06-09,3986.77686
2005-06-10,4165.28926
2005-06-11,4284.29752
2005-06-12,4284.29752
2005-06-13,4026.44628
2005-06-14,3669.42149
2005-06-15,3411.57025
2005-06-16,3252.89256
2005-06-17,3431.40496
2005-06-18,3728.92562
2005-06-19,3887.60331
2005-06-20,3986.77686
2005-06-21,3986.77686
2005-06-22,4165.28926
2005-06-23,4264.46281
2005-06-24,4264.46281
2005-06-25,4363.63636
2005-06-26,4403.30579
2005-06-27,4343.80165
2005-06-28,4204.95868
2005-06-29,4105.78512
2005-06-30,3689.2562
2005-07-01,3153.71901
2005-07-02,2856.19835
2005-07-03,2598.34711
2005-07-04,2380.16529
2005-07-05,2261.15702
2005-07-06,2201.65289
2005-07-07,2102.47934
2005-07-08,1945.78512
2005-07-09,1804.95868
2005-07-10,1707.7686
2005-07-11,1604.6281
2005-07-12,1467.7686
2005-07-13,1338.84298
2005-07-14,1247.60331
2005-07-15,1136.52893
2005-07-16,946.1157
2005-07-17,924.29752
2005-07-18,922.31405
2005-07-19,846.94215
2005-07-20,789.42149
2005-07-21,775.53719
2005-07-22,720.0
2005-07-23,644.6281
2005-07-24,595.04132
2005-07-25,634.71074
2005-07-26,718.01653
2005-07-27,829.09091
2005-07-28,825.12397
2005-07-29,783.47107
2005-07-30,755.70248
2005-07-31,672.39669
2005-08-01,539.50413
2005-08-02,464.13223
2005-08-03,436.36364
2005-08-04,420.49587
2005-08-05,406.61157
2005-08-06,398.67769
2005-08-07,382.80992
2005-08-08,374.87603
2005-08-09,359.00826
2005-08-10,345.12397
2005-08-11,315.3719
2005-08-12,297.52066
2005-08-13,309.42149
2005-08-14,299.50413
2005-08-15,331.23967
2005-08-16,380.82645
2005-08-17,464.13223
2005-08-18,426.44628
2005-08-19,343.1405
2005-08-20,311.40496
2005-08-21,279.66942
2005-08-22,247.93388
2005-08-23,218.18182
2005-08-24,204.29752
2005-08-25,190.41322
2005-08-26,182.47934
2005-08-27,174.54545
2005-08-28,166.61157
2005-08-29,162.64463
2005-08-30,160.66116
2005-08-31,152.72727
2005-09-01,144.79339
2005-09-02,142.80992
2005-09-03,144.79339
2005-09-04,132.89256
2005-09-05,126.94215
2005-09-06,124.95868
2005-09-07,122.97521
2005-09-08,119.00826
2005-09-09,120.99174
2005-09-10,124.95868
2005-09-11,124.95868
2005-09-12,119.00826
2005-09-13,119.00826
2005-09-14,117.02479
2005-09-15,117.02479
2005-09-16,124.95868
2005-09-17,119.00826
2005-09-18,117.02479
2005-09-19,111.07438
2005-09-20,109.09091
2005-09-21,109.09091
2005-09-22,111.07438
2005-09-23,117.02479
2005-09-24,126.94215
2005-09-25,120.99174
2005-09-26,117.02479
2005-09-27,117.02479
2005-09-28,113.05785
2005-09-29,117.02479
2005-09-30,120.99174
2005-10-01,122.97521
2005-10-02,128.92562
2005-10-03,138.84298
2005-10-04,164.6281
2005-10-05,168.59504
2005-10-06,190.41322
2005-10-07,156.69421
2005-10-08,130.90909
2005-10-09,138.84298
2005-10-10,194.38017
2005-10-11,186.44628
2005-10-12,271.73554
2005-10-13,481.98347
2005-10-14,430.41322
2005-10-15,398.67769
2005-10-16,325.28926
2005-10-17,271.73554
2005-10-18,240.0
2005-10-19,245.95041
2005-10-20,261.81818
2005-10-21,247.93388
2005-10-22,238.01653
2005-10-23,241.98347
2005-10-24,277.68595
2005-10-25,311.40496
2005-10-26,426.44628
2005-10-27,501.81818
2005-10-28,563.30579
2005-10-29,595.04132
2005-10-30,618.84298
2005-10-31,616.8595
2005-11-01,618.84298
2005-11-02,646.61157
2005-11-03,686.28099
2005-11-04,656.52893
2005-11-05,640.66116
2005-11-06,630.7438
2005-11-07,620.82645
2005-11-08,610.90909
2005-11-09,626.77686
2005-11-10,757.68595
2005-11-11,1015.53719
2005-11-12,1041.32231
2005-11-13,1011.57025
2005-11-14,1007.60331
2005-11-15,954.04959
2005-11-16,880.66116
2005-11-17,848.92562
2005-11-18,821.15702
2005-11-19,751.73554
2005-11-20,759.66942
2005-11-21,777.52066
2005-11-22,751.73554
2005-11-23,720.0
2005-11-24,710.08264
2005-11-25,723.96694
2005-11-26,658.5124
2005-11-27,698.18182
2005-11-28,581.15702
2005-11-29,485.95041
2005-11-30,289.58678
2005-12-01,501.81818
2005-12-02,549.42149
2005-12-03,660.49587
2005-12-04,579.17355
2005-12-05,503.80165
2005-12-06,420.49587
2005-12-07,416.52893
2005-12-08,444.29752
2005-12-09,458.18182
2005-12-10,527.60331
2005-12-11,529.58678
2005-12-12,531.57025
2005-12-13,545.45455
2005-12-14,539.50413
2005-12-15,545.45455
2005-12-16,541.4876
2005-12-17,525.61983
2005-12-18,485.95041
2005-12-19,485.95041
2005-12-20,485.95041
2005-12-21,491.90083
2005-12-22,517.68595
2005-12-23,559.33884
2005-12-24,559.33884
2005-12-25,565.28926
2005-12-26,587.10744
2005-12-27,587.10744
2005-12-28,602.97521
2005-12-29,612.89256
2005-12-30,614.87603
2005-12-31,610.90909
2006-01-01,650.57851
2006-01-02,626.77686
2006-01-03,646.61157
2006-01-04,658.5124
2006-01-05,624.79339
2006-01-06,614.87603
2006-01-07,614.87603
2006-01-08,636.69421
2006-01-09,650.57851
2006-01-10,602.97521
2006-01-11,567.27273
2006-01-12,561.32231
2006-01-13,565.28926
2006-01-14,549.42149
2006-01-15,589.09091
2006-01-16,595.04132
2006-01-17,515.70248
2006-01-18,527.60331
2006-01-19,555.3719
2006-01-20,575.20661
2006-01-21,541.4876
2006-01-22,523.63636
2006-01-23,501.81818
2006-01-24,501.81818
2006-01-25,499.83471
2006-01-26,529.58678
2006-01-27,521.65289
2006-01-28,539.50413
2006-01-29,535.53719
2006-01-30,543.47107
2006-01-31,547.43802
2006-02-01,563.30579
2006-02-02,571.23967
2006-02-03,571.23967
2006-02-04,565.28926
2006-02-05,585.12397
2006-02-06,573.22314
2006-02-07,541.4876
2006-02-08,559.33884
2006-02-09,549.42149
2006-02-10,549.42149
2006-02-11,533.55372
2006-02-12,480.0
2006-02-13,537.52066
2006-02-14,537.52066
2006-02-15,549.42149
2006-02-16,571.23967
2006-02-17,565.28926
2006-02-18,525.61983
2006-02-19,527.60331
2006-02-20,600.99174
2006-02-21,595.04132
2006-02-22,593.05785
2006-02-23,591.07438
2006-02-24,597.02479
2006-02-25,618.84298
2006-02-26,632.72727
2006-02-27,712.06612
2006-02-28,787.43802
2006-03-01,718.01653
2006-03-02,698.18182
2006-03-03,731.90083
2006-03-04,751.73554
2006-03-05,769.58678
2006-03-06,779.50413
2006-03-07,751.73554
2006-03-08,727.93388
2006-03-09,741.81818
2006-03-10,765.61983
2006-03-11,763.63636
2006-03-12,723.96694
2006-03-13,604.95868
2006-03-14,589.09091
2006-03-15,559.33884
2006-03-16,507.7686
2006-03-17,509.75207
2006-03-18,529.58678
2006-03-19,537.52066
2006-03-20,545.45455
2006-03-21,561.32231
2006-03-22,561.32231
2006-03-23,553.38843
2006-03-24,533.55372
2006-03-25,531.57025
2006-03-26,517.68595
2006-03-27,503.80165
2006-03-28,519.66942
2006-03-29,513.71901
2006-03-30,450.24793
2006-03-31,378.84298
2006-04-01,339.17355
2006-04-02,335.20661
2006-04-03,408.59504
2006-04-04,533.55372
2006-04-05,589.09091
2006-04-06,557.35537
2006-04-07,595.04132
2006-04-08,575.20661
2006-04-09,410.57851
2006-04-10,349.09091
2006-04-11,291.57025
2006-04-12,291.57025
2006-04-13,368.92562
2006-04-14,299.50413
2006-04-15,257.85124
2006-04-16,269.75207
2006-04-17,301.4876
2006-04-18,382.80992
2006-04-19,420.49587
2006-04-20,430.41322
2006-04-21,392.72727
2006-04-22,378.84298
2006-04-23,382.80992
2006-04-24,501.81818
2006-04-25,466.1157
2006-04-26,561.32231
2006-04-27,507.7686
2006-04-28,430.41322
2006-04-29,426.44628
2006-04-30,480.0
2006-05-01,521.65289
2006-05-02,525.61983
2006-05-03,480.0
2006-05-04,537.52066
2006-05-05,620.82645
2006-05-06,783.47107
2006-05-07,769.58678
2006-05-08,710.08264
2006-05-09,527.60331
2006-05-10,430.41322
2006-05-11,478.01653
2006-05-12,483.96694
2006-05-13,444.29752
2006-05-14,390.7438
2006-05-15,372.89256
2006-05-16,412.56198
2006-05-17,438.34711
2006-05-18,470.08264
2006-05-19,595.04132
2006-05-20,527.60331
2006-05-21,450.24793
2006-05-22,497.85124
2006-05-23,541.4876
2006-05-24,716.03306
2006-05-25,785.45455
2006-05-26,599.00826
2006-05-27,499.83471
2006-05-28,507.7686
2006-05-29,454.21488
2006-05-30,378.84298
2006-05-31,368.92562
2006-06-01,384.79339
2006-06-02,450.24793
2006-06-03,529.58678
2006-06-04,842.97521
2006-06-05,880.66116
2006-06-06,723.96694
2006-06-07,577.19008
2006-06-08,529.58678
2006-06-09,531.57025
2006-06-10,525.61983
2006-06-11,604.95868
2006-06-12,557.35537
2006-06-13,519.66942
2006-06-14,547.43802
2006-06-15,523.63636
2006-06-16,541.4876
2006-06-17,533.55372
2006-06-18,549.42149
2006-06-19,537.52066
2006-06-20,489.91736
2006-06-21,458.18182
2006-06-22,416.52893
2006-06-23,364.95868
2006-06-24,325.28926
2006-06-25,341.15702
2006-06-26,400.66116
2006-06-27,384.79339
2006-06-28,349.09091
2006-06-29,351.07438
2006-06-30,335.20661
2006-07-01,362.97521
2006-07-02,349.09091
2006-07-03,339.17355
2006-07-04,317.35537
2006-07-05,323.30579
2006-07-06,333.22314
2006-07-07,382.80992
2006-07-08,388.76033
2006-07-09,394.71074
2006-07-10,565.28926
2006-07-11,620.82645
2006-07-12,616.8595
2006-07-13,499.83471
2006-07-14,438.34711
2006-07-15,414.54545
2006-07-16,402.64463
2006-07-17,380.82645
2006-07-18,404.6281
2006-07-19,382.80992
2006-07-20,353.05785
2006-07-21,343.1405
2006-07-22,339.17355
2006-07-23,329.2562
2006-07-24,343.1405
2006-07-25,335.20661
2006-07-26,325.28926
2006-07-27,339.17355
2006-07-28,333.22314
2006-07-29,309.42149
2006-07-30,311.40496
2006-07-31,295.53719
2006-08-01,293.55372
2006-08-02,299.50413
2006-08-03,305.45455
2006-08-04,303.47107
2006-08-05,341.15702
2006-08-06,374.87603
2006-08-07,378.84298
2006-08-08,410.57851
2006-08-09,424.46281
2006-08-10,575.20661
2006-08-11,710.08264
2006-08-12,720.0
2006-08-13,670.41322
2006-08-14,690.24793
2006-08-15,676.36364
2006-08-16,686.28099
2006-08-17,690.24793
2006-08-18,686.28099
2006-08-19,632.72727
2006-08-20,547.43802
2006-08-21,545.45455
2006-08-22,541.4876
2006-08-23,571.23967
2006-08-24,565.28926
2006-08-25,553.38843
2006-08-26,499.83471
2006-08-27,497.85124
2006-08-28,563.30579
2006-08-29,632.72727
2006-08-30,688.26446
2006-08-31,652.56198
2006-09-01,543.47107
2006-09-02,478.01653
2006-09-03,394.71074
2006-09-04,380.82645
2006-09-05,370.90909
2006-09-06,372.89256
2006-09-07,362.97521
2006-09-08,388.76033
2006-09-09,450.24793
2006-09-10,509.75207
2006-09-11,557.35537
2006-09-12,624.79339
2006-09-13,587.10744
2006-09-14,555.3719
2006-09-15,499.83471
2006-09-16,452.2314
2006-09-17,448.26446
2006-09-18,604.95868
2006-09-19,638.67769
2006-09-20,591.07438
2006-09-21,531.57025
2006-09-22,501.81818
2006-09-23,579.17355
2006-09-24,624.79339
2006-09-25,624.79339
2006-09-26,690.24793
2006-09-27,662.47934
2006-09-28,698.18182
2006-09-29,682.31405
2006-09-30,676.36364
2006-10-01,658.5124
2006-10-02,660.49587
2006-10-03,632.72727
2006-10-04,612.89256
2006-10-05,579.17355
2006-10-06,602.97521
2006-10-07,612.89256
2006-10-08,646.61157
2006-10-09,888.59504
2006-10-10,1606.61157
2006-10-11,1711.73554
2006-10-12,1553.05785
2006-10-13,1469.75207
2006-10-14,1378.5124
2006-10-15,1273.38843
2006-10-16,1186.1157
2006-10-17,1382.47934
2006-10-18,1519.33884
2006-10-19,1438.01653
2006-10-20,1235.70248
2006-10-21,1096.8595
2006-10-22,1053.22314
2006-10-23,1110.7438
2006-10-24,1071.07438
2006-10-25,979.83471
2006-10-26,963.96694
2006-10-27,983.80165
2006-10-28,952.06612
2006-10-29,890.57851
2006-10-30,823.1405
2006-10-31,801.32231
2006-11-01,779.50413
2006-11-02,922.31405
2006-11-03,1531.23967
2006-11-04,1808.92562
2006-11-05,1715.70248
2006-11-06,1620.49587
2006-11-07,1576.8595
2006-11-08,1543.1405
2006-11-09,1493.55372
2006-11-10,1479.66942
2006-11-11,1491.57025
2006-11-12,1414.21488
2006-11-13,1366.61157
2006-11-14,1326.94215
2006-11-15,1311.07438
2006-11-16,1251.57025
2006-11-17,1225.78512
2006-11-18,1207.93388
2006-11-19,1247.60331
2006-11-20,1287.27273
2006-11-21,1267.43802
2006-11-22,1229.75207
2006-11-23,1190.08264
2006-11-24,1176.19835
2006-11-25,1164.29752
2006-11-26,1148.42975
2006-11-27,1118.67769
2006-11-28,1098.84298
2006-11-29,1094.87603
2006-11-30,856.8595
2006-12-01,602.97521
2006-12-02,622.80992
2006-12-03,610.90909
2006-12-04,571.23967
2006-12-05,620.82645
2006-12-06,747.7686
2006-12-07,807.27273
2006-12-08,839.00826
2006-12-09,868.76033
2006-12-10,904.46281
2006-12-11,924.29752
2006-12-12,936.19835
2006-12-13,848.92562
2006-12-14,858.84298
2006-12-15,896.52893
2006-12-16,910.41322
2006-12-17,946.1157
2006-12-18,954.04959
2006-12-19,930.24793
2006-12-20,1003.63636
2006-12-21,842.97521
2006-12-22,725.95041
2006-12-23,706.1157
2006-12-24,682.31405
2006-12-25,702.14876
2006-12-26,733.8843
2006-12-27,773.55372
2006-12-28,775.53719
2006-12-29,779.50413
2006-12-30,791.40496
2006-12-31,850.90909
2007-01-01,842.97521
2007-01-02,807.27273
2007-01-03,755.70248
2007-01-04,739.83471
2007-01-05,755.70248
2007-01-06,755.70248
2007-01-07,710.08264
2007-01-08,747.7686
2007-01-09,729.91736
2007-01-10,690.24793
2007-01-11,688.26446
2007-01-12,720.0
2007-01-13,775.53719
2007-01-14,771.57025
2007-01-15,735.86777
2007-01-16,718.01653
2007-01-17,644.6281
2007-01-18,630.7438
2007-01-19,618.84298
2007-01-20,634.71074
2007-01-21,622.80992
2007-01-22,630.7438
2007-01-23,644.6281
2007-01-24,676.36364
2007-01-25,692.2314
2007-01-26,688.26446
2007-01-27,690.24793
2007-01-28,700.16529
2007-01-29,710.08264
2007-01-30,700.16529
2007-01-31,720.0
2007-02-01,727.93388
2007-02-02,706.1157
2007-02-03,686.28099
2007-02-04,696.19835
2007-02-05,712.06612
2007-02-06,706.1157
2007-02-07,714.04959
2007-02-08,729.91736
2007-02-09,745.78512
2007-02-10,751.73554
2007-02-11,763.63636
2007-02-12,789.42149
2007-02-13,793.38843
2007-02-14,795.3719
2007-02-15,817.19008
2007-02-16,813.22314
2007-02-17,799.33884
2007-02-18,785.45455
2007-02-19,793.38843
2007-02-20,823.1405
2007-02-21,835.04132
2007-02-22,868.76033
2007-02-23,856.8595
2007-02-24,866.77686
2007-02-25,864.79339
2007-02-26,878.67769
2007-02-27,930.24793
2007-02-28,902.47934
2007-03-01,878.67769
2007-03-02,886.61157
2007-03-03,789.42149
2007-03-04,846.94215
2007-03-05,894.54545
2007-03-06,894.54545
2007-03-07,892.56198
2007-03-08,993.71901
2007-03-09,1023.47107
2007-03-10,1037.35537
2007-03-11,1136.52893
2007-03-12,1168.26446
2007-03-13,1225.78512
2007-03-14,1366.61157
2007-03-15,1509.42149
2007-03-16,1767.27273
2007-03-17,2221.4876
2007-03-18,2538.84298
2007-03-19,2638.01653
2007-03-20,2816.52893
2007-03-21,2895.86777
2007-03-22,2757.02479
2007-03-23,2697.52066
2007-03-24,2697.52066
2007-03-25,2657.85124
2007-03-26,2479.33884
2007-03-27,2280.99174
2007-03-28,2102.47934
2007-03-29,2221.4876
2007-03-30,2300.82645
2007-03-31,2102.47934
2007-04-01,1896.19835
2007-04-02,1735.53719
2007-04-03,1600.66116
2007-04-04,1654.21488
2007-04-05,1660.16529
2007-04-06,1566.94215
2007-04-07,1235.70248
2007-04-08,1063.1405
2007-04-09,1035.3719
2007-04-10,1120.66116
2007-04-11,975.86777
2007-04-12,852.89256
2007-04-13,721.98347
2007-04-14,731.90083
2007-04-15,876.69421
2007-04-16,989.75207
2007-04-17,1001.65289
2007-04-18,1051.23967
2007-04-19,975.86777
2007-04-20,878.67769
2007-04-21,791.40496
2007-04-22,698.18182
2007-04-23,666.44628
2007-04-24,624.79339
2007-04-25,630.7438
2007-04-26,704.13223
2007-04-27,632.72727
2007-04-28,587.10744
2007-04-29,547.43802
2007-04-30,648.59504
2007-05-01,924.29752
2007-05-02,1410.24793
2007-05-03,1687.93388
2007-05-04,1618.5124
2007-05-05,1394.38017
2007-05-06,1334.87603
2007-05-07,1142.47934
2007-05-08,1037.35537
2007-05-09,934.21488
2007-05-10,827.10744
2007-05-11,783.47107
2007-05-12,674.38017
2007-05-13,670.41322
2007-05-14,743.80165
2007-05-15,1055.20661
2007-05-16,1305.12397
2007-05-17,1507.43802
2007-05-18,1445.95041
2007-05-19,1324.95868
2007-05-20,1205.95041
2007-05-21,1065.12397
2007-05-22,1170.24793
2007-05-23,1253.55372
2007-05-24,1188.09917
2007-05-25,1180.16529
2007-05-26,1116.69421
2007-05-27,1077.02479
2007-05-28,1001.65289
2007-05-29,952.06612
2007-05-30,973.8843
2007-05-31,971.90083
2007-06-01,946.1157
2007-06-02,882.64463
2007-06-03,809.2562
2007-06-04,759.66942
2007-06-05,878.67769
2007-06-06,1027.43802
2007-06-07,989.75207
2007-06-08,993.71901
2007-06-09,1015.53719
2007-06-10,783.47107
2007-06-11,684.29752
2007-06-12,658.5124
2007-06-13,672.39669
2007-06-14,922.31405
2007-06-15,1271.40496
2007-06-16,1235.70248
2007-06-17,1029.42149
2007-06-18,924.29752
2007-06-19,914.38017
2007-06-20,860.82645
2007-06-21,749.75207
2007-06-22,664.46281
2007-06-23,606.94215
2007-06-24,602.97521
2007-06-25,664.46281
2007-06-26,630.7438
2007-06-27,579.17355
2007-06-28,559.33884
2007-06-29,513.71901
2007-06-30,493.8843
2007-07-01,539.50413
2007-07-02,487.93388
2007-07-03,440.33058
2007-07-04,442.31405
2007-07-05,390.7438
2007-07-06,396.69421
2007-07-07,434.38017
2007-07-08,416.52893
2007-07-09,390.7438
2007-07-10,434.38017
2007-07-11,388.76033
2007-07-12,474.04959
2007-07-13,561.32231
2007-07-14,557.35537
2007-07-15,495.86777
2007-07-16,452.2314
2007-07-17,452.2314
2007-07-18,468.09917
2007-07-19,432.39669
2007-07-20,424.46281
2007-07-21,460.16529
2007-07-22,583.1405
2007-07-23,630.7438
2007-07-24,664.46281
2007-07-25,678.34711
2007-07-26,739.83471
2007-07-27,678.34711
2007-07-28,660.49587
2007-07-29,565.28926
2007-07-30,549.42149
2007-07-31,644.6281
2007-08-01,821.15702
2007-08-02,749.75207
2007-08-03,745.78512
2007-08-04,662.47934
2007-08-05,535.53719
2007-08-06,499.83471
2007-08-07,545.45455
2007-08-08,610.90909
2007-08-09,716.03306
2007-08-10,1114.71074
2007-08-11,1100.82645
2007-08-12,936.19835
2007-08-13,775.53719
2007-08-14,680.33058
2007-08-15,612.89256
2007-08-16,599.00826
2007-08-17,575.20661
2007-08-18,567.27273
2007-08-19,640.66116
2007-08-20,700.16529
2007-08-21,682.31405
2007-08-22,650.57851
2007-08-23,606.94215
2007-08-24,587.10744
2007-08-25,553.38843
2007-08-26,521.65289
2007-08-27,497.85124
2007-08-28,515.70248
2007-08-29,553.38843
2007-08-30,565.28926
2007-08-31,593.05785
2007-09-01,595.04132
2007-09-02,597.02479
2007-09-03,577.19008
2007-09-04,581.15702
2007-09-05,589.09091
2007-09-06,600.99174
2007-09-07,583.1405
2007-09-08,587.10744
2007-09-09,591.07438
2007-09-10,569.2562
2007-09-11,535.53719
2007-09-12,507.7686
2007-09-13,501.81818
2007-09-14,509.75207
2007-09-15,470.08264
2007-09-16,474.04959
2007-09-17,472.06612
2007-09-18,478.01653
2007-09-19,456.19835
2007-09-20,446.28099
2007-09-21,523.63636
2007-09-22,557.35537
2007-09-23,555.3719
2007-09-24,545.45455
2007-09-25,513.71901
2007-09-26,481.98347
2007-09-27,710.08264
2007-09-28,718.01653
2007-09-29,672.39669
2007-09-30,593.05785
2007-10-01,487.93388
2007-10-02,483.96694
2007-10-03,583.1405
2007-10-04,557.35537
2007-10-05,517.68595
2007-10-06,497.85124
2007-10-07,501.81818
2007-10-08,602.97521
2007-10-09,773.55372
2007-10-10,761.65289
2007-10-11,757.68595
2007-10-12,664.46281
2007-10-13,612.89256
2007-10-14,624.79339
2007-10-15,622.80992
2007-10-16,608.92562
2007-10-17,612.89256
2007-10-18,604.95868
2007-10-19,559.33884
2007-10-20,549.42149
2007-10-21,527.60331
2007-10-22,497.85124
2007-10-23,537.52066
2007-10-24,537.52066
2007-10-25,513.71901
2007-10-26,460.16529
2007-10-27,456.19835
2007-10-28,386.77686
2007-10-29,343.1405
2007-10-30,313.38843
2007-10-31,287.60331
2007-11-01,271.73554
2007-11-02,271.73554
2007-11-03,271.73554
2007-11-04,374.87603
2007-11-05,702.14876
2007-11-06,807.27273
2007-11-07,793.38843
2007-11-08,787.43802
2007-11-09,811.23967
2007-11-10,833.05785
2007-11-11,842.97521
2007-11-12,842.97521
2007-11-13,842.97521
2007-11-14,839.00826
2007-11-15,829.09091
2007-11-16,829.09091
2007-11-17,819.17355
2007-11-18,811.23967
2007-11-19,801.32231
2007-11-20,795.3719
2007-11-21,795.3719
2007-11-22,787.43802
2007-11-23,779.50413
2007-11-24,747.7686
2007-11-25,624.79339
2007-11-26,519.66942
2007-11-27,362.97521
2007-11-28,327.27273
2007-11-29,481.98347
2007-11-30,650.57851
2007-12-01,763.63636
2007-12-02,902.47934
2007-12-03,868.76033
2007-12-04,963.96694
2007-12-05,950.08264
2007-12-06,950.08264
2007-12-07,916.36364
2007-12-08,985.78512
2007-12-09,1037.35537
2007-12-10,1110.7438
2007-12-11,1067.10744
2007-12-12,956.03306
2007-12-13,880.66116
2007-12-14,761.65289
2007-12-15,593.05785
2007-12-16,370.90909
2007-12-17,388.76033
2007-12-18,408.59504
2007-12-19,569.2562
2007-12-20,682.31405
2007-12-21,714.04959
2007-12-22,733.8843
2007-12-23,676.36364
2007-12-24,658.5124
2007-12-25,674.38017
2007-12-26,632.72727
2007-12-27,591.07438
2007-12-28,593.05785
2007-12-29,547.43802
2007-12-30,529.58678
2007-12-31,557.35537
2008-01-01,485.95041
2008-01-02,489.91736
2008-01-03,519.66942
2008-01-04,539.50413
2008-01-05,577.19008
2008-01-06,656.52893
2008-01-07,642.64463
2008-01-08,646.61157
2008-01-09,664.46281
2008-01-10,668.42975
2008-01-11,672.39669
2008-01-12,662.47934
2008-01-13,593.05785
2008-01-14,575.20661
2008-01-15,557.35537
2008-01-16,557.35537
2008-01-17,517.68595
2008-01-18,501.81818
2008-01-19,468.09917
2008-01-20,489.91736
2008-01-21,499.83471
2008-01-22,493.8843
2008-01-23,505.78512
2008-01-24,511.73554
2008-01-25,525.61983
2008-01-26,539.50413
2008-01-27,539.50413
2008-01-28,618.84298
2008-01-29,612.89256
2008-01-30,565.28926
2008-01-31,626.77686
2008-02-01,618.84298
2008-02-02,624.79339
2008-02-03,628.76033
2008-02-04,628.76033
2008-02-05,632.72727
2008-02-06,622.80992
2008-02-07,624.79339
2008-02-08,630.7438
2008-02-09,632.72727
2008-02-10,628.76033
2008-02-11,626.77686
2008-02-12,632.72727
2008-02-13,636.69421